Date String (YYYY-MM-DD hh:mm:ss) UTC,Instrument flags,absolute air pressure of the measurement (hPa),sample flow rate (lpm),inlet stack bypass flow (lpm),air temperature of the measurement (°C),ambient temperature measured by the external sensor (°C),aerosol sample conditioner tube jacket temperature (°C),OPC LED temperature (°C),internal box temperature (°C),relative humidity of the measurement (%),span deviation,mass concentration of particles derived from Lorenz-Mie calculation of OPC scattering (μg/m³),mass concentration of particles derived from Lorenz-Mie calculation of OPC scattering (μg/m³),mass concentration of particles derived from Lorenz-Mie calculation of OPC scattering (μg/m³)
DateTimeUTC,F1_M11,P_M11,Q1_M11,Q2_M11,T1_M11,T2_M11,T3_M11,T4_M11,T5_M11,U1_M11,ZSPAN_M11,X2_M11,X0_M11,X1_M11
2024-02-29 12:00:00,SystemResetWarning,0825.9,4.99,000.00,018.8,018.1,000.0,027.2,020.5,10.1,0000.0,0004.53,0016.02,0003.15
2024-02-29 12:01:00,SystemResetWarning,0825.9,5.00,000.00,018.8,018.1,000.0,027.2,020.5,10.1,0000.0,0004.54,0016.32,0003.16
2024-02-29 12:02:00,SystemResetWarning,0825.9,5.01,000.00,018.8,018.1,000.0,027.2,020.5,10.0,0000.0,0004.51,0016.47,0003.15
2024-02-29 12:03:00,SystemResetWarning,0825.9,5.00,000.00,018.8,018.1,000.0,027.2,020.4,09.7,0000.0,0004.56,0016.59,0003.16
2024-02-29 12:04:00,SystemResetWarning,0825.9,5.00,000.00,018.8,018.1,000.0,027.2,020.5,09.3,0000.0,0004.50,0015.89,0003.16
2024-02-29 12:05:00,SystemResetWarning,0825.9,5.00,000.00,018.8,018.1,000.0,027.2,020.4,09.2,0000.0,0004.45,0015.12,0003.16
2024-02-29 12:06:00,SystemResetWarning,0825.9,5.00,000.00,018.8,018.1,000.0,027.2,020.5,09.4,0000.0,0004.38,0014.64,0003.14
2024-02-29 12:07:00,SystemResetWarning,0825.9,5.00,000.00,018.8,018.1,000.0,027.2,020.5,10.1,0000.0,0004.36,0014.36,0003.13
2024-02-29 12:08:00,SystemResetWarning,0825.9,5.00,000.00,018.8,018.1,000.0,027.2,020.5,10.1,0000.0,0004.36,0014.54,0003.13
2024-02-29 12:09:00,SystemResetWarning,0825.9,5.00,000.00,018.8,018.0,000.0,027.2,020.4,10.1,0000.0,0004.35,0014.46,0003.12
2024-02-29 12:10:00,SystemResetWarning,0825.9,5.00,000.00,018.8,018.0,000.0,027.2,020.4,09.9,0000.0,0004.38,0014.37,0003.12
2024-02-29 12:11:00,SystemResetWarning,0825.9,5.00,000.00,018.7,018.0,000.0,027.2,020.4,09.9,0000.0,0004.44,0014.71,0003.12
2024-02-29 12:12:00,SystemResetWarning,0825.9,5.00,000.00,018.7,018.0,000.0,027.2,020.4,09.9,0000.0,0004.47,0014.86,0003.11
2024-02-29 12:13:00,SystemResetWarning,0825.9,5.00,000.00,018.7,018.0,000.0,027.1,020.4,09.7,0000.0,0004.49,0015.10,0003.10
2024-02-29 12:14:00,SystemResetWarning,0825.9,5.00,000.00,018.7,018.0,000.0,027.1,020.4,09.6,0000.0,0004.49,0015.23,0003.11
2024-02-29 12:15:00,SystemResetWarning,0825.9,4.99,000.00,018.7,018.0,000.0,027.1,020.4,09.8,0000.0,0004.52,0015.58,0003.12
2024-02-29 12:16:00,SystemResetWarning,0826.0,5.00,000.00,018.7,018.0,000.0,027.1,020.4,10.0,0000.0,0004.58,0016.02,0003.14
2024-02-29 12:17:00,SystemResetWarning,0826.0,5.00,000.00,018.7,018.0,000.0,027.1,020.3,10.1,0000.0,0004.59,0016.66,0003.15
2024-02-29 12:18:00,SystemResetWarning,0826.1,5.01,000.00,018.7,018.0,000.0,027.1,020.3,10.0,0000.0,0004.63,0016.70,0003.15
2024-02-29 12:19:00,SystemResetWarning,0826.1,5.01,000.00,018.7,018.0,000.0,027.1,020.3,09.9,0000.0,0004.62,0015.95,0003.15
2024-02-29 12:20:00,SystemResetWarning,0826.1,5.00,000.00,018.7,018.0,000.0,027.1,020.3,09.7,0000.0,0004.69,0016.24,0003.17
2024-02-29 12:21:00,SystemResetWarning,0826.1,5.00,000.00,018.7,018.0,000.0,027.1,020.4,09.8,0000.0,0004.68,0015.59,0003.17
2024-02-29 12:22:00,SystemResetWarning,0826.1,5.00,000.00,018.7,018.0,000.0,027.1,020.4,09.9,0000.0,0004.64,0015.29,0003.18
2024-02-29 12:23:00,SystemResetWarning,0826.0,5.00,000.00,018.7,018.0,000.0,027.1,020.4,10.0,0000.0,0004.62,0014.72,0003.20
2024-02-29 12:24:00,SystemResetWarning,0826.0,4.99,000.00,018.7,018.0,000.0,027.1,020.4,09.7,0000.0,0004.61,0014.35,0003.21
2024-02-29 12:25:00,SystemResetWarning,0826.0,5.00,000.00,018.7,018.0,000.0,027.1,020.4,09.8,0000.0,0004.60,0014.45,0003.21
2024-02-29 12:26:00,SystemResetWarning,0826.0,5.00,000.00,018.7,018.0,000.0,027.1,020.3,09.6,0000.0,0004.57,0013.87,0003.21
2024-02-29 12:27:00,SystemResetWarning,0826.0,5.00,000.00,018.7,018.0,000.0,027.1,020.3,09.6,0000.0,0004.54,0014.22,0003.21
2024-02-29 12:28:00,SystemResetWarning,0826.2,5.00,000.00,018.7,018.0,000.0,027.1,020.3,09.6,0000.0,0004.60,0014.20,0003.21
2024-02-29 12:29:00,SystemResetWarning,0826.1,5.00,000.00,018.7,018.0,000.0,027.1,020.4,09.6,0000.0,0004.59,0015.47,0003.23
2024-02-29 12:30:00,SystemResetWarning,0826.1,5.00,000.00,018.7,018.0,000.0,027.1,020.4,09.7,0000.0,0004.61,0015.89,0003.25
2024-02-29 12:31:00,SystemResetWarning,0826.2,5.00,000.00,018.7,018.0,000.0,027.1,020.4,09.7,0000.0,0004.61,0016.36,0003.25
2024-02-29 12:32:00,SystemResetWarning,0826.2,5.00,000.00,018.7,018.0,000.0,027.1,020.4,09.7,0000.0,0004.61,0016.46,0003.26
2024-02-29 12:33:00,SystemResetWarning,0826.2,5.00,000.00,018.7,018.0,000.0,027.1,020.4,09.8,0000.0,0004.63,0016.32,0003.25
2024-02-29 12:34:00,SystemResetWarning,0826.2,5.00,000.00,018.7,018.0,000.0,027.1,020.4,10.0,0000.0,0004.64,0016.48,0003.26
2024-02-29 12:35:00,SystemResetWarning,0826.2,5.00,000.00,018.7,018.0,000.0,027.1,020.4,10.1,0000.0,0004.71,0016.81,0003.29
2024-02-29 12:36:00,SystemResetWarning,0826.2,5.00,000.00,018.7,018.0,000.0,027.1,020.4,10.1,0000.0,0004.73,0016.29,0003.30
2024-02-29 12:37:00,SystemResetWarning,0826.2,5.00,000.00,018.7,018.0,000.0,027.1,020.4,10.2,0000.0,0004.77,0016.02,0003.31
2024-02-29 12:38:00,SystemResetWarning,0826.2,4.99,000.00,018.7,017.9,000.0,027.1,020.4,10.2,0000.0,0004.74,0015.21,0003.30
2024-02-29 12:39:00,SystemResetWarning,0826.2,5.00,000.00,018.6,017.9,000.0,027.1,020.3,10.2,0000.0,0004.68,0014.91,0003.29
2024-02-29 12:40:00,SystemResetWarning,0826.2,5.00,000.00,018.6,017.9,000.0,027.1,020.3,10.2,0000.0,0004.66,0013.62,0003.27
2024-02-29 12:41:00,SystemResetWarning,0826.2,5.00,000.00,018.6,017.8,000.0,027.1,020.2,10.2,0000.0,0004.66,0012.53,0003.26
2024-02-29 12:42:00,SystemResetWarning,0826.2,5.00,000.00,018.6,017.8,000.0,027.1,020.2,10.1,0000.0,0004.58,0011.77,0003.24
2024-02-29 12:43:00,SystemResetWarning,0826.2,5.01,000.00,018.5,017.8,000.0,027.1,020.2,10.0,0000.0,0004.55,0011.76,0003.22
2024-02-29 12:44:00,SystemResetWarning,0826.1,5.01,000.00,018.5,017.7,000.0,027.0,020.2,10.1,0000.0,0004.51,0012.79,0003.21
2024-02-29 12:45:00,SystemResetWarning,0826.0,4.98,000.00,018.5,017.7,000.0,027.0,020.2,09.9,0000.0,0004.46,0012.45,0003.20
2024-02-29 12:46:00,SystemResetWarning,0826.1,5.00,000.00,018.5,017.7,000.0,027.0,020.2,10.0,0000.0,0004.42,0011.96,0003.18
2024-02-29 12:47:00,SystemResetWarning,0826.1,5.00,000.00,018.4,017.7,000.0,027.0,020.2,09.8,0000.0,0004.41,0012.00,0003.17
2024-02-29 12:48:00,SystemResetWarning,0826.2,5.00,000.00,018.4,017.7,000.0,027.0,020.2,09.7,0000.0,0004.42,0012.04,0003.17
2024-02-29 12:49:00,SystemResetWarning,0826.2,5.00,000.00,018.4,017.7,000.0,027.0,020.2,09.6,0000.0,0004.48,0012.17,0003.18
2024-02-29 12:50:00,SystemResetWarning,0826.2,5.00,000.00,018.4,017.7,000.0,027.0,020.1,09.2,0000.0,0004.53,0012.18,0003.19
2024-02-29 12:51:00,SystemResetWarning,0826.2,5.00,000.00,018.4,017.7,000.0,027.0,020.1,09.1,0000.0,0004.53,0012.36,0003.21
2024-02-29 12:52:00,SystemResetWarning,0826.2,5.00,000.00,018.4,017.7,000.0,027.0,020.1,09.0,0000.0,0004.52,0012.23,0003.21
2024-02-29 12:53:00,SystemResetWarning,0826.1,5.00,000.00,018.4,017.7,000.0,027.0,020.1,09.2,0000.0,0004.55,0012.44,0003.23
2024-02-29 12:54:00,SystemResetWarning,0826.2,5.00,000.00,018.5,017.7,000.0,026.9,020.1,09.2,0000.0,0004.57,0012.27,0003.25
2024-02-29 12:55:00,SystemResetWarning,0826.2,5.00,000.00,018.5,017.7,000.0,026.9,020.1,09.1,0000.0,0004.59,0011.53,0003.25
2024-02-29 12:56:00,SystemResetWarning,0826.2,4.99,000.00,018.5,017.8,000.0,026.9,020.1,09.0,0000.0,0004.61,0012.15,0003.25
2024-02-29 12:57:00,SystemResetWarning,0826.2,5.01,000.00,018.5,017.8,000.0,026.9,020.1,09.0,0000.0,0004.57,0012.93,0003.24
2024-02-29 12:58:00,SystemResetWarning,0826.2,4.99,000.00,018.5,017.8,000.0,026.9,020.1,09.0,0000.0,0004.54,0013.18,0003.24
2024-02-29 12:59:00,SystemResetWarning,0826.2,4.99,000.00,018.5,017.8,000.0,026.9,020.2,09.1,0000.0,0004.50,0013.45,0003.23
